This demonstration page uses our WeatherBlox Daily Observations layout. Learn more.

Left ArrowRight Arrow

Hourly Observations for August 12, 2022

Temp ( °F °C ) Dew Point ( °F °C ) Humidity (%) Winds ( mph kmh ) Pressure ( in mb ) Visibility ( mi km ) Precip ( " mm )
12:51 am 00:51 Clear 74 23.3 66 18.9 76 76 ESE 5 7 29.93 1014 10 16 0.00 0.00
1:51 am 01:51 Clear 74 23.3 65 18.3 74 74 S 8 13 29.92 1013 10 16 0.00 0.00
2:51 am 02:51 Clear 76 24.4 64 17.8 67 67 SE 10 17 29.93 1014 10 16 0.00 0.00
3:51 am 03:51 Clear 75 23.9 62 16.7 64 64 E 9 15 29.93 1014 10 16 0.00 0.00
4:51 am 04:51 Clear 75 23.9 62 16.7 64 64 E 9 15 29.92 1013 10 16 0.00 0.00
5:51 am 05:51 Sunny 75 23.9 61 16.1 62 62 E 9 15 29.93 1014 10 16 0.00 0.00
6:51 am 06:51 Sunny 77 25 62 16.7 60 60 ESE 7 11 29.94 1014 10 16 0.00 0.00
7:51 am 07:51 Sunny 81 27.2 62 16.7 53 53 ESE 9 15 29.97 1015 10 16 0.00 0.00
8:51 am 08:51 Mostly Sunny 82 27.8 65 18.3 56 56 SE 9 15 29.98 1015 10 16 0.00 0.00
9:51 am 09:51 Sunny 84 28.9 65 18.3 53 53 SSE 9 15 29.98 1015 10 16 0.00 0.00
10:51 am 10:51 Sunny 87 30.6 65 18.3 48 48 SSE 7 11 29.95 1014 10 16 0.00 0.00
11:51 am 11:51 Sunny 90 32.2 64 17.8 42 42 VRB 6 9 29.92 1013 10 16 0.00 0.00
12:51 pm 12:51 Sunny 92 33.3 63 17.2 38 38 SSE 10 17 29.89 1012 10 16 0.00 0.00
1:51 pm 13:51 Sunny 93 33.9 61 16.1 35 35 VRB 6 9 29.86 1011 10 16 0.00 0.00
2:16 pm 14:16 Sunny with Nearby Thunderstorms 94 34.4 59 15 31 31 SSE 8 13 29.74 1007 10 16 0.00 0.00
2:51 pm 14:51 Partly Cloudy 92 33.3 61 16.1 36 36 NE 26 43 29.86 1011 10 16 0.00 0.00
3:00 pm 15:00 Mostly Cloudy with Nearby Thunderstorms 86 30 61 16.1 43 43 NE 35 56 29.80 1009 10 16 0.00 0.00
3:51 pm 15:51 Partly Cloudy 85 29.4 61 16.1 45 45 VRB 5 7 29.90 1012 10 16 0.00 0.00
4:51 pm 16:51 Sunny 84 28.9 58 14.4 41 41 W 5 7 29.90 1013 10 16 0.00 0.00
5:51 pm 17:51 Sunny 82 27.8 63 17.2 53 53 SSW 3 6 29.90 1013 10 16 0.00 0.00
6:51 pm 18:51 Sunny 78 25.6 64 17.8 62 62 NW 15 24 29.93 1013 10 16 0.00 0.00
7:51 pm 19:51 Clear 75 23.9 65 18.3 71 71 W 13 20 29.93 1014 10 16 0.00 0.00
8:51 pm 20:51 Clear 74 23.3 66 18.9 76 76 NW 6 9 29.95 1014 10 16 0.00 0.00
9:51 pm 21:51 Clear 73 22.8 66 18.9 79 79 NNW 3 6 29.96 1015 10 16 0.00 0.00
10:51 pm 22:51 Clear 72 22.2 66 18.9 82 82 Calm 29.96 1015 10 16 0.00 0.00
11:51 pm 23:51 Partly Cloudy 72 22.2 66 18.9 82 82 Calm 29.95 1014 10 16 0.00 0.00

Powered by AerisWeather